Location: Kergrach
(48.3833°N, 4.5167°W)
Time: 09:23:37
(UTC+00:00)

Cosmos 1743 Rocket - Pass Details

Date: 18 February 2020
Orbit: 605 x 632 km, 82.6° (Epoch: 09 April)

Event Time Altitude Azimuth Distance (km) Brightness Sun altitude
Rises 05:23:15 0° 348° (NNW) 2,876 6.9 -20.2°
Reaches altitude 10° 05:25:28 10° 347° (NNW) 1,966 6.0 -19.8°
Maximum altitude 05:29:48 71° 263° (W) 644 3.4 -19.1°
Drops below altitude 10° 05:34:06 10° 180° (S) 1,952 6.1 -18.4°
Sets 05:36:18 0° 178° (S) 2,853 7.0 -18.0°
